Location: Newark
(44.3248°N, 23.7839°E)
Time: 18:00:43
(UTC+00:00)

STARS - Pass Details

Date: 03 May 2024
Orbit: 604 x 620 km, 98.1° (Epoch: 28 May)

Event Time Altitude Azimuth Distance (km) Brightness Sun altitude
Rises 22:22:45 0° 15° (NNE) 2,886 ? -29.6°
Reaches altitude 10° 22:24:57 10° 18° (NNE) 1,974 ? -29.6°
Enters shadow 22:27:35 36° 30° (NNE) 978 ? -29.6°
